Satellite: RS-30
Catalog number: 32953
Epoch time:      12096.60906319
Element set:     673
Inclination:      082.5060 deg
RA of node:       340.2793 deg
Eccentricity:    0.0019547
Arg of perigee:   103.9585 deg
Mean anomaly:     256.3675 deg
Mean motion:   12.43021994 rev/day
Decay rate:        1.0e-07 rev/day^2
Epoch rev:           17554
Checksum:              302

Satellite: TACSAT-3
Catalog number: 35001
Epoch time:      12096.54996421
Element set:     932
Inclination:      040.4450 deg
RA of node:       157.3964 deg
Eccentricity:    0.0013301
Arg of perigee:   092.3335 deg
Mean anomaly:     267.9020 deg
Mean motion:   15.90294601 rev/day
Decay rate:    2.87933e-03 rev/day^2
Epoch rev:           16295
Checksum:              294

Satellite: PHARMSAT
Catalog number: 35002
Epoch time:      12095.56602056
Element set:    0851
Inclination:      040.4608 deg
RA of node:       173.8729 deg
Eccentricity:    0.0002306
Arg of perigee:   327.0716 deg
Mean anomaly:     032.9965 deg
Mean motion:   15.71033690 rev/day
Decay rate:     8.1135e-04 rev/day^2
Epoch rev:           16269
Checksum:              285

Satellite: METEOR-M
Catalog number: 35865
Epoch time:      12096.59763274
Element set:     296
Inclination:      098.6623 deg
RA of node:       152.2574 deg
Eccentricity:    0.0001624
Arg of perigee:   268.2783 deg
Mean anomaly:     091.8219 deg
Mean motion:   14.21858726 rev/day
Decay rate:       -1.1e-07 rev/day^2
Epoch rev:           13228
Checksum:              318

Satellite: RS-38
Catalog number: 35869
Epoch time:      12096.55897199
Element set:     306
Inclination:      098.6583 deg
RA of node:       152.2267 deg
Eccentricity:    0.0003739
Arg of perigee:   264.6072 deg
Mean anomaly:     095.4683 deg
Mean motion:   14.22061882 rev/day
Decay rate:        2.8e-07 rev/day^2
Epoch rev:           13229
Checksum:              342

Satellite: JUGNU
Catalog number: 37839
Epoch time:      12095.32477040
Element set:    0123
Inclination:      019.9600 deg
RA of node:       085.6726 deg
Eccentricity:    0.0019495
Arg of perigee:   126.3596 deg
Mean anomaly:     233.8582 deg
Mean motion:   14.12039460 rev/day
Decay rate:       6.20e-06 rev/day^2
Epoch rev:           02479
Checksum:              299

Satellite: SRMSAT
Catalog number: 37841
Epoch time:      12095.34962776
Element set:    0123
Inclination:      019.9727 deg
RA of node:       088.9725 deg
Eccentricity:    0.0011749
Arg of perigee:   101.1213 deg
Mean anomaly:     259.0705 deg
Mean motion:   14.10126571 rev/day
Decay rate:       2.64e-06 rev/day^2
Epoch rev:           02476
Checksum:              291

Satellite: RAX-2
Catalog number: 37853
Epoch time:      12095.95485620
Element set:    0155
Inclination:      101.7182 deg
RA of node:       102.8330 deg
Eccentricity:    0.0249538
Arg of perigee:   199.5452 deg
Mean anomaly:     159.6048 deg
Mean motion:   14.79301897 rev/day
Decay rate:      2.939e-05 rev/day^2
Epoch rev:           02357
Checksum:              329

Satellite: AUBIESAT
Catalog number: 37854
Epoch time:      12095.92728204
Element set:    0154
Inclination:      101.7182 deg
RA of node:       102.9488 deg
Eccentricity:    0.0251263
Arg of perigee:   198.9272 deg
Mean anomaly:     160.2466 deg
Mean motion:   14.79633888 rev/day
Decay rate:      3.553e-05 rev/day^2
Epoch rev:           02355
Checksum:              318

Satellite: HRBE
Catalog number: 37855
Epoch time:      12095.93455031
Element set:    0155
Inclination:      101.7197 deg
RA of node:       102.9349 deg
Eccentricity:    0.0251687
Arg of perigee:   198.9776 deg
Mean anomaly:     160.1929 deg
Mean motion:   14.79520111 rev/day
Decay rate:      3.427e-05 rev/day^2
Epoch rev:           02355
Checksum:              314

Satellite: RS-39
Catalog number: 38051
Epoch time:      12096.52760373
Element set:     218
Inclination:      051.6381 deg
RA of node:       145.7740 deg
Eccentricity:    0.0010877
Arg of perigee:   133.7813 deg
Mean anomaly:     007.5461 deg
Mean motion:   15.23061651 rev/day
Decay rate:      7.804e-05 rev/day^2
Epoch rev:            1089
Checksum:              291

Satellite: E-STAR
Catalog number: 38079
Epoch time:      12096.16205389
Element set:     127
Inclination:      069.4831 deg
RA of node:       121.9929 deg
Eccentricity:    0.0767155
Arg of perigee:   339.7252 deg
Mean anomaly:     017.4656 deg
Mean motion:   14.09391724 rev/day
Decay rate:     4.9964e-04 rev/day^2
Epoch rev:             727
Checksum:              340

Satellite: GOLIAT
Catalog number: 38085
Epoch time:      12096.46343182
Element set:     124
Inclination:      069.4860 deg
RA of node:       121.3796 deg
Eccentricity:    0.0768018
Arg of perigee:   339.3195 deg
Mean anomaly:     017.8312 deg
Mean motion:   14.08792186 rev/day
Decay rate:     4.8927e-04 rev/day^2
Epoch rev:             731
Checksum:              321

/EX
_______________________________________________
Via the Keps mailing list courtesy of AMSAT-NA
http://amsat.org/mailman/listinfo/keps

--- ViaMAIL!/WC v1.60d
 * Origin: Chowdanet (401-724-4410) telnet://chowdanet.com  (1:323/120)